GW2622 Weather Reports


Display with metric or nautical units.
time (UTC)temp
F
wind
direction
speed
MPH
gust
MPH
rain 1hr
in
rain 24hr
in
rain mn
in
humidity
%
barometer
mb
20260902232607 93 199 3.0 5.0 0.00 0.00 0.00 62 1011.7
20260902232101 93 197 3.0 5.0 0.00 0.00 0.00 63 1011.8
20260902231556 93 183 3.0 5.0 0.00 0.00 0.00 63 1011.6
20260902231050 94 256 1.0 2.0 0.00 0.00 0.00 62 1011.4
20260902230545 95 238 2.0 3.0 0.00 0.00 0.00 59 1011.7
20260902230044 95 250 1.0 3.0 0.00 0.00 0.00 60 1011.7
20260902225539 94 221 3.0 5.0 0.00 0.00 0.00 58 1011.6
20260902225039 95 184 4.0 6.0 0.00 0.00 0.00 57 1011.7
20260902224538 95 209 3.0 6.0 0.00 0.00 0.00 58 1011.7
20260902224034 95 219 4.0 5.0 0.00 0.00 0.00 57 1011.6
20260902223530 95 216 3.0 6.0 0.00 0.00 0.00 57 1011.7
20260902223029 95 210 4.0 7.0 0.00 0.00 0.00 56 1011.7
20260902222528 95 175 6.0 8.0 0.00 0.00 0.00 55 1011.7
20260902222026 96 232 5.0 8.0 0.00 0.00 0.00 54 1011.9
20260902221521 95 268 2.0 6.0 0.00 0.00 0.00 56 1012.0
20260902221016 95 225 5.0 7.0 0.00 0.00 0.00 55 1011.6
20260902220511 95 211 4.0 7.0 0.00 0.00 0.00 54 1011.7
20260902220006 96 199 5.0 6.0 0.00 0.00 0.00 55 1011.9
20260902215502 96 223 3.0 6.0 0.00 0.00 0.00 54 1011.8
20260902214958 96 189 5.0 8.0 0.00 0.00 0.00 52 1012.0
20260902214457 95 218 5.0 9.0 0.00 0.00 0.00 53 1011.8
20260902213955 95 219 5.0 8.0 0.00 0.00 0.00 54 1012.0
20260902213452 96 195 3.0 8.0 0.00 0.00 0.00 54 1012.0
20260902212951 96 243 4.0 7.0 0.00 0.00 0.00 52 1011.9
20260902212447 96 237 8.0 13.0 0.00 0.00 0.00 51 1012.0
20260902211943 96 223 4.0 10.0 0.00 0.00 0.00 52 1012.0
20260902211439 96 219 9.0 16.0 0.00 0.00 0.00 51 1011.9
20260902210933 96 242 5.0 8.0 0.00 0.00 0.00 54 1012.1
20260902210428 96 265 4.0 8.0 0.00 0.00 0.00 53 1012.1
20260902205926 96 229 6.0 8.0 0.00 0.00 0.00 51 1012.0
20260902205416 96 241 5.0 8.0 0.00 0.00 0.00 54 1012.1
20260902204912 96 194 6.0 11.0 0.00 0.00 0.00 52 1011.9
20260902204411 96 225 7.0 8.0 0.00 0.00 0.00 54 1012.0
20260902203907 96 230 7.0 10.0 0.00 0.00 0.00 54 1012.1
20260902203402 96 206 5.0 9.0 0.00 0.00 0.00 54 1012.1
20260902202856 96 149 7.0 11.0 0.00 0.00 0.00 54 1012.2
20260902202352 96 196 5.0 8.0 0.00 0.00 0.00 55 1012.2
20260902201849 96 206 5.0 7.0 0.00 0.00 0.00 55 1012.2
20260902201348 97 214 5.0 6.0 0.00 0.00 0.00 54 1012.5
20260902200843 97 212 7.0 8.0 0.00 0.00 0.00 53 1012.4
20260902200339 97 197 6.0 10.0 0.00 0.00 0.00 54 1012.7
20260902195834 96 205 5.0 9.0 0.00 0.00 0.00 54 1012.7
20260902195333 96 199 7.0 9.0 0.00 0.00 0.00 54 1012.5
20260902194828 95 194 6.0 11.0 0.00 0.00 0.00 54 1012.7
20260902194327 95 220 7.0 10.0 0.00 0.00 0.00 56 1012.6
20260902193823 96 200 8.0 13.0 0.00 0.00 0.00 55 1012.8
20260902193319 96 210 6.0 10.0 0.00 0.00 0.00 55 1012.8
20260902192818 95 218 7.0 11.0 0.00 0.00 0.00 54 1012.9
20260902192316 96 207 9.0 11.0 0.00 0.00 0.00 54 1012.8
20260902191816 95 230 6.0 10.0 0.00 0.00 0.00 54 1012.9
20260902191312 95 208 9.0 13.0 0.00 0.00 0.00 54 1012.8
20260902190807 95 234 4.0 9.0 0.00 0.00 0.00 56 1013.0
20260902190306 96 223 4.0 7.0 0.00 0.00 0.00 54 1013.1
20260902185803 95 228 5.0 13.0 0.00 0.00 0.00 55 1013.1
20260902185258 95 204 4.0 6.0 0.00 0.00 0.00 55 1013.2
20260902184754 94 209 5.0 9.0 0.00 0.00 0.00 58 1013.2
20260902184249 94 228 2.0 8.0 0.00 0.00 0.00 59 1013.1
20260902183744 94 212 7.0 9.0 0.00 0.00 0.00 59 1013.4
20260902183240 94 182 7.0 8.0 0.00 0.00 0.00 57 1013.6
20260902182736 93 294 4.0 7.0 0.00 0.00 0.00 59 1013.4
20260902182233 93 219 7.0 13.0 0.00 0.00 0.00 59 1013.5
20260902181729 93 239 6.0 11.0 0.00 0.00 0.00 58 1013.6
20260902181228 92 219 8.0 11.0 0.00 0.00 0.00 60 1013.7
20260902180723 92 229 4.0 7.0 0.00 0.00 0.00 59 1013.6
20260902180219 93 186 6.0 8.0 0.00 0.00 0.00 59 1013.5
20260902175713 92 257 4.0 10.0 0.00 0.00 0.00 60 1013.5
20260902175209 92 214 5.0 8.0 0.00 0.00 0.00 58 1013.5
20260902174705 91 238 5.0 10.0 0.00 0.00 0.00 59 1013.9
20260902174201 93 195 3.0 8.0 0.00 0.00 0.00 60 1013.9
20260902173656 92 207 3.0 6.0 0.00 0.00 0.00 58 1013.9
20260902173151 92 249 5.0 6.0 0.00 0.00 0.00 59 1013.9
20260902172646 91 212 4.0 9.0 0.00 0.00 0.00 62 1014.1
20260902172144 91 171 3.0 6.0 0.00 0.00 0.00 61 1013.9
20260902171640 90 167 7.0 13.0 0.00 0.00 0.00 61 1014.1
20260902171136 91 215 5.0 9.0 0.00 0.00 0.00 60 1014.2
20260902170631 90 230 8.0 11.0 0.00 0.00 0.00 60 1014.2
20260902170127 91 226 3.0 7.0 0.00 0.00 0.00 60 1014.2
20260902165627 90 223 5.0 8.0 0.00 0.00 0.00 60 1014.5
20260902165121 90 219 4.0 8.0 0.00 0.00 0.00 61 1014.5
20260902164616 90 212 5.0 7.0 0.00 0.00 0.00 61 1014.6
20260902164115 89 215 5.0 8.0 0.00 0.00 0.00 63 1014.3
20260902163611 89 218 4.0 6.0 0.00 0.00 0.00 62 1014.5
20260902163109 89 237 5.0 11.0 0.00 0.00 0.00 61 1014.5
20260902162609 89 185 3.0 9.0 0.00 0.00 0.00 63 1014.5
20260902162109 88 166 6.0 8.0 0.00 0.00 0.00 63 1014.6
20260902161604 88 179 5.0 10.0 0.00 0.00 0.00 63 1014.4
20260902161100 88 249 3.0 7.0 0.00 0.00 0.00 65 1014.3
20260902160555 88 198 6.0 8.0 0.00 0.00 0.00 63 1014.3
20260902160051 87 162 5.0 7.0 0.00 0.00 0.00 64 1014.6
20260902155544 88 212 4.0 7.0 0.00 0.00 0.00 65 1014.5
20260902155042 87 248 1.0 7.0 0.00 0.00 0.00 65 1014.4
20260902154538 88 215 4.0 6.0 0.00 0.00 0.00 65 1014.4
20260902154032 87 206 3.0 6.0 0.00 0.00 0.00 66 1014.5
20260902153531 87 144 4.0 6.0 0.00 0.00 0.00 67 1014.7
20260902153027 86 202 4.0 6.0 0.00 0.00 0.00 68 1014.6
20260902152523 86 162 4.0 7.0 0.00 0.00 0.00 68 1014.5
20260902152018 87 187 3.0 3.0 0.00 0.00 0.00 68 1014.7
20260902151514 86 167 3.0 7.0 0.00 0.00 0.00 70 1014.5
20260902151013 85 195 3.0 5.0 0.00 0.00 0.00 70 1014.4
20260902150510 85 147 3.0 5.0 0.00 0.00 0.00 71 1014.5
20260902150009 84 198 3.0 6.0 0.00 0.00 0.00 72 1014.4
20260902145504 84 159 3.0 7.0 0.00 0.00 0.00 73 1014.4
20260902144959 84 215 3.0 6.0 0.00 0.00 0.00 73 1014.5
20260902144456 83 190 3.0 3.0 0.00 0.00 0.00 74 1014.4
20260902143956 83 166 5.0 7.0 0.00 0.00 0.00 75 1014.5
20260902143451 82 172 4.0 7.0 0.00 0.00 0.00 75 1014.3
20260902142946 82 177 4.0 6.0 0.00 0.00 0.00 75 1014.4
20260902142443 82 203 4.0 6.0 0.00 0.00 0.00 76 1014.5
20260902141937 81 275 1.0 7.0 0.00 0.00 0.00 77 1014.7
20260902141433 81 152 6.0 8.0 0.00 0.00 0.00 77 1014.5
20260902140932 81 150 2.0 6.0 0.00 0.00 0.00 78 1014.7
20260902140428 81 227 2.0 5.0 0.00 0.00 0.00 78 1014.5
20260902135927 80 154 4.0 7.0 0.00 0.00 0.00 80 1014.6
20260902135423 79 194 3.0 6.0 0.00 0.00 0.00 80 1014.5
20260902134922 80 178 5.0 6.0 0.00 0.00 0.00 79 1014.5
20260902134418 79 218 2.0 6.0 0.00 0.00 0.00 79 1014.5
20260902133913 78 259 1.0 3.0 0.00 0.00 0.00 80 1014.6
20260902133412 78 211 2.0 5.0 0.00 0.00 0.00 80 1014.6
20260902132907 78 177 3.0 6.0 0.00 0.00 0.00 81 1014.8
20260902132402 77 181 3.0 5.0 0.00 0.00 0.00 82 1014.6
20260902131857 78 182 3.0 5.0 0.00 0.00 0.00 82 1014.6
20260902131355 78 256 1.0 1.0 0.00 0.00 0.00 79 1014.7
20260902130853 78 273 0.0 2.0 0.00 0.00 0.00 81 1014.8
20260902130350 77 174 5.0 5.0 0.00 0.00 0.00 83 1014.9
20260902125844 75 180 3.0 5.0 0.00 0.00 0.00 85 1014.8
20260902125341 75 204 2.0 2.0 0.00 0.00 0.00 85 1015.0
20260902124836 75 194 2.0 3.0 0.00 0.00 0.00 84 1015.0
20260902124332 75 259 1.0 2.0 0.00 0.00 0.00 85 1015.1
20260902123827 74 281 0.0 0.0 0.00 0.00 0.00 86 1015.2
20260902123323 74 281 0.0 1.0 0.00 0.00 0.00 87 1015.0
20260902122822 73 258 1.0 3.0 0.00 0.00 0.00 88 1014.8
20260902122318 73 198 2.0 2.0 0.00 0.00 0.00 89 1015.0
20260902121817 72 244 2.0 2.0 0.00 0.00 0.00 90 1015.0
20260902121313 72 319 0.0 0.0 0.00 0.00 0.00 90 1014.9
20260902120808 73 333 3.0 3.0 0.00 0.00 0.00 89 1015.2
20260902120305 73 246 1.0 3.0 0.00 0.00 0.00 87 1014.8
20260902115759 72 270 1.0 2.0 0.00 0.00 0.00 89 1014.8
20260902115256 73 325 2.0 2.0 0.00 0.00 0.00 89 1014.9
20260902114752 73 199 2.0 3.0 0.00 0.00 0.00 86 1014.8
20260902114248 74 296 0.0 1.0 0.00 0.00 0.00 87 1014.8
20260902113747 74 313 0.0 0.0 0.00 0.00 0.00 85 1014.8
20260902113243 75 285 0.0 0.0 0.00 0.00 0.00 83 1014.8
20260902112742 74 256 1.0 2.0 0.00 0.00 0.00 85 1014.8
20260902112239 74 336 1.0 2.0 0.00 0.00 0.00 86 1014.8
20260902111734 74 347 0.0 1.0 0.00 0.00 0.00 85 1014.6
20260902111231 75 290 0.0 1.0 0.00 0.00 0.00 83 1014.8
20260902110726 75 275 1.0 2.0 0.00 0.00 0.00 84 1014.6
20260902110222 75 312 0.0 1.0 0.00 0.00 0.00 83 1014.8
20260902105721 75 311 0.0 0.0 0.00 0.00 0.00 81 1014.8
20260902105211 75 316 0.0 1.0 0.00 0.00 0.00 82 1014.9
20260902104706 76 301 0.0 0.0 0.00 0.00 0.00 81 1014.8
20260902104202 76 276 2.0 2.0 0.00 0.00 0.00 79 1014.7
20260902103655 76 308 0.0 6.0 0.00 0.00 0.00 79 1015.0
20260902103151 76 35 5.0 6.0 0.00 0.00 0.00 81 1015.2
20260902102647 75 296 1.0 3.0 0.00 0.00 0.00 82 1014.7
20260902102144 75 14 6.0 9.0 0.00 0.00 0.00 83 1014.7
20260902101639 75 32 4.0 11.0 0.00 0.00 0.00 83 1014.6
20260902101138 75 341 5.0 7.0 0.00 0.00 0.00 84 1014.6
20260902100633 75 232 3.0 5.0 0.00 0.00 0.00 83 1013.6
20260902100128 75 201 3.0 5.0 0.00 0.00 0.00 83 1013.7
20260902095627 75 206 3.0 5.0 0.00 0.00 0.00 83 1013.6
20260902095127 75 222 3.0 5.0 0.00 0.00 0.00 84 1013.5
20260902094622 75 217 3.0 3.0 0.00 0.00 0.00 83 1013.5
20260902094118 75 200 3.0 5.0 0.00 0.00 0.00 83 1013.5
20260902093612 75 206 4.0 5.0 0.00 0.00 0.00 83 1013.4
20260902093106 75 207 3.0 5.0 0.00 0.00 0.00 83 1013.5
20260902092601 75 229 3.0 5.0 0.00 0.00 0.00 83 1013.4
20260902092056 75 218 3.0 5.0 0.00 0.00 0.00 82 1013.4
20260902091551 75 207 4.0 5.0 0.00 0.00 0.00 82 1013.5
20260902091047 76 190 3.0 3.0 0.00 0.00 0.00 82 1013.4
20260902090542 76 220 2.0 5.0 0.00 0.00 0.00 81 1013.3
20260902090041 76 218 3.0 5.0 0.00 0.00 0.00 81 1013.7
20260902085536 76 230 3.0 6.0 0.00 0.00 0.00 81 1013.4
20260902085031 76 203 3.0 7.0 0.00 0.00 0.00 81 1013.4
20260902084522 76 214 4.0 5.0 0.00 0.00 0.00 81 1013.4
20260902084017 76 197 4.0 5.0 0.00 0.00 0.00 81 1013.5
20260902083512 76 228 3.0 3.0 0.00 0.00 0.00 80 1013.5
20260902083007 76 201 3.0 5.0 0.00 0.00 0.00 80 1013.5
20260902082502 76 182 3.0 5.0 0.00 0.00 0.00 80 1013.3
20260902081958 77 221 2.0 3.0 0.00 0.00 0.00 80 1013.5
20260902081455 77 213 4.0 5.0 0.00 0.00 0.00 79 1013.3
20260902080949 77 216 4.0 5.0 0.00 0.00 0.00 79 1013.6
20260902080445 77 217 3.0 6.0 0.00 0.00 0.00 79 1013.2
20260902075939 77 197 4.0 6.0 0.00 0.00 0.00 78 1013.3
20260902075436 77 188 4.0 6.0 0.00 0.00 0.00 78 1013.5
20260902074931 78 215 3.0 6.0 0.00 0.00 0.00 78 1013.3
20260902074426 78 211 3.0 5.0 0.00 0.00 0.00 77 1013.3
20260902073921 78 219 3.0 5.0 0.00 0.00 0.00 77 1013.2
20260902073417 78 184 4.0 7.0 0.00 0.00 0.00 76 1013.3
20260902072913 78 195 6.0 7.0 0.00 0.00 0.00 76 1013.2
20260902072409 78 214 5.0 6.0 0.00 0.00 0.00 76 1013.1
20260902071905 78 246 3.0 5.0 0.00 0.00 0.00 77 1012.9
20260902071404 78 245 3.0 6.0 0.00 0.00 0.00 77 1013.0
20260902070901 78 216 3.0 5.0 0.00 0.00 0.00 77 1013.1
20260902070356 78 190 4.0 6.0 0.00 0.00 0.00 76 1012.8
20260902065854 78 201 4.0 6.0 0.00 0.00 0.00 76 1012.9
20260902065344 79 157 3.0 5.0 0.00 0.00 0.00 75 1012.8
20260902064839 79 204 3.0 5.0 0.00 0.00 0.00 75 1012.7
20260902064335 78 203 3.0 5.0 0.00 0.00 0.00 76 1012.7
20260902063831 79 223 4.0 6.0 0.00 0.00 0.00 75 1012.8
20260902063330 79 205 4.0 6.0 0.00 0.00 0.00 75 1012.7
20260902062825 79 218 3.0 5.0 0.00 0.00 0.00 75 1012.7
20260902062320 78 189 3.0 5.0 0.00 0.00 0.00 75 1012.9
20260902061819 79 217 3.0 3.0 0.00 0.00 0.00 75 1012.7
20260902061315 79 188 4.0 6.0 0.00 0.00 0.00 75 1013.0
20260902060811 79 214 3.0 3.0 0.00 0.00 0.00 75 1013.1
20260902060306 79 211 2.0 3.0 0.00 0.00 0.00 76 1013.1
20260902055802 79 228 2.0 5.0 0.00 0.00 0.00 75 1013.0
20260902055258 79 184 3.0 5.0 0.00 0.00 0.00 76 1013.1
20260902054752 79 228 3.0 5.0 0.00 0.00 0.00 76 1013.1
20260902054248 79 221 3.0 3.0 0.00 0.00 0.00 75 1013.3
20260902053744 79 199 4.0 5.0 0.00 0.00 0.00 75 1013.2
20260902053243 79 211 4.0 7.0 0.00 0.00 0.00 75 1013.2
20260902052742 79 234 2.0 5.0 0.00 0.00 0.00 76 1013.2
20260902052232 79 201 3.0 5.0 0.00 0.00 0.00 76 1013.5
20260902051731 79 211 3.0 5.0 0.00 0.00 0.00 77 1013.3
20260902051221 79 242 2.0 2.0 0.00 0.00 0.00 76 1013.2
20260902050715 79 214 2.0 5.0 0.00 0.00 0.00 76 1013.3
20260902050210 79 192 3.0 3.0 0.00 0.00 0.00 76 1013.3
20260902045705 79 215 2.0 3.0 0.00 0.00 0.00 76 1013.4
20260902045201 79 225 3.0 5.0 0.00 0.00 0.00 75 1013.4
20260902044656 80 218 1.0 3.0 0.00 0.00 0.00 75 1013.4
20260902044152 79 177 3.0 5.0 0.00 0.00 0.00 75 1013.5
20260902043647 80 193 3.0 5.0 0.00 0.00 0.00 74 1013.3
20260902043142 80 183 2.0 3.0 0.00 0.00 0.00 74 1013.4
20260902042641 80 203 3.0 3.0 0.00 0.00 0.00 74 1013.3
20260902042136 79 199 2.0 3.0 0.00 0.00 0.00 75 1013.5
20260902041631 80 242 2.0 2.0 0.00 0.00 0.00 76 1013.4
20260902041126 80 217 2.0 2.0 0.00 0.00 0.00 76 1013.6
20260902040625 80 243 2.0 2.0 0.00 0.00 0.00 74 1013.5
20260902040121 81 246 1.0 2.0 0.00 0.00 0.00 73 1013.5
20260902035618 82 234 2.0 3.0 0.00 0.00 0.00 72 1013.4
20260902035113 81 195 2.0 3.0 0.00 0.00 0.00 72 1013.6
20260902034612 81 191 3.0 5.0 0.00 0.00 0.00 72 1013.5
20260902034107 81 206 2.0 5.0 0.00 0.00 0.00 73 1013.4
20260902033606 81 187 3.0 5.0 0.00 0.00 0.00 74 1013.3
20260902033101 80 176 4.0 6.0 0.00 0.00 0.00 75 1013.3
20260902032600 80 195 3.0 5.0 0.00 0.00 0.00 76 1013.3
20260902032055 80 195 3.0 3.0 0.00 0.00 0.00 77 1013.2
20260902031549 80 175 3.0 5.0 0.00 0.00 0.00 77 1013.3
20260902031045 80 171 3.0 5.0 0.00 0.00 0.00 76 1013.1
20260902030540 81 183 3.0 5.0 0.00 0.00 0.00 76 1013.1
20260902030040 81 191 3.0 3.0 0.00 0.00 0.00 75 1013.1
20260902025534 81 175 3.0 3.0 0.00 0.00 0.00 75 1013.2
20260902025029 81 170 2.0 3.0 0.00 0.00 0.00 75 1013.2
20260902024525 81 172 3.0 3.0 0.00 0.00 0.00 74 1013.3
20260902024025 81 185 3.0 3.0 0.00 0.00 0.00 75 1013.1
20260902023521 81 164 3.0 5.0 0.00 0.00 0.00 74 1013.1
20260902023015 82 188 2.0 3.0 0.00 0.00 0.00 74 1013.2
20260902022510 82 179 3.0 3.0 0.00 0.00 0.00 74 1012.9
20260902022005 82 165 2.0 3.0 0.00 0.00 0.00 73 1013.0
20260902021500 82 198 2.0 2.0 0.00 0.00 0.00 72 1013.0
20260902020955 83 200 2.0 3.0 0.00 0.00 0.00 71 1012.7
20260902020451 83 199 3.0 5.0 0.00 0.00 0.00 71 1013.0
20260902015947 83 172 3.0 5.0 0.00 0.00 0.00 70 1012.8
20260902015443 83 182 3.0 3.0 0.00 0.00 0.00 71 1012.6
20260902014938 84 191 2.0 3.0 0.00 0.00 0.00 70 1012.5
20260902014435 84 195 2.0 3.0 0.00 0.00 0.00 70 1012.6
20260902013933 84 191 3.0 3.0 0.00 0.00 0.00 70 1012.5
20260902013429 84 195 2.0 2.0 0.00 0.00 0.00 69 1012.6
20260902012924 84 186 3.0 3.0 0.00 0.00 0.00 69 1012.4
20260902012420 84 185 3.0 3.0 0.00 0.00 0.00 69 1012.3
20260902011916 84 189 2.0 3.0 0.00 0.00 0.00 69 1012.6
20260902011410 85 192 2.0 3.0 0.00 0.00 0.00 69 1012.5
20260902010910 85 231 2.0 3.0 0.00 0.00 0.00 69 1012.3
20260902010405 85 257 2.0 5.0 0.00 0.00 0.00 69 1012.2
20260902005904 85 144 2.0 3.0 0.00 0.00 0.00 69 1012.4
20260902005358 86 227 1.0 3.0 0.00 0.00 0.00 68 1012.2
20260902004854 86 165 3.0 5.0 0.00 0.00 0.00 67 1012.4
20260902004353 86 258 1.0 2.0 0.00 0.00 0.00 68 1012.3
20260902003849 87 201 2.0 2.0 0.00 0.00 0.00 66 1012.4
20260902003344 87 244 2.0 6.0 0.00 0.00 0.00 66 1012.4
20260902002840 88 255 2.0 2.0 0.00 0.00 0.00 65 1012.4
20260902002339 88 198 2.0 3.0 0.00 0.00 0.00 64 1012.4
20260902001835 89 160 3.0 5.0 0.00 0.00 0.00 63 1012.4
20260902001330 89 192 3.0 5.0 0.00 0.00 0.00 62 1012.5
20260902000824 89 258 1.0 3.0 0.00 0.00 0.00 62 1012.7
20260902000324 90 243 3.0 5.0 0.00 0.00 0.00 61 1012.6
20260901235819 90 236 2.0 6.0 0.00 0.00 0.00 61 1012.5
20260901235314 91 192 3.0 3.0 0.00 0.00 0.00 61 1012.6
20260901234813 91 207 4.0 5.0 0.00 0.00 0.00 60 1012.5
20260901234308 92 247 2.0 2.0 0.00 0.00 0.00 60 1012.6
20260901233803 92 222 4.0 7.0 0.00 0.00 0.00 59 1012.6
20260901233253 92 190 2.0 5.0 0.00 0.00 0.00 59 1012.5